Regional Weather Roundup
Issued by NWS State College, PA

Current Version | Previous Version | Text Only | Print | Product List | Glossary On
Versions: 1 2 3 4 5 6 7 8 9 10 11 12 13 14 15 16 17 18 19 20 21 22 23 24 25 26 27 28 29 30 31 32 33 34 35 36 37 38 39 40 41 42 43 44 45 46 47 48 49 50
000
ASUS41 KCTP 191310
RWRCTP

REGIONAL WEATHER ROUNDUP
NATIONAL WEATHER SERVICE STATE COLLEGE PA
900 AM EDT FRI SEP 19 2014

Note: "fair" indicates few or no clouds below 12,000 feet with no
significant weather and/or obstructions to visibility.

* = STATION THAT DOES NOT REPORT PRECIPITATION /E.G. RAIN...SNOW...ETC/
    THUNDER OR FOG.

PAZ002>004-007>009-013>016-020>023-029>032-191400-
WESTERN PENNSYLVANIA

CITY           SKY/WX    TMP DP  RH WIND       PRES   REMARKS
ERIE           SUNNY     50  44  80 SE3       30.27R
MEADVILLE      SUNNY     48  44  86 E5        30.27R
FRANKLIN*      CLOUDY    45  43  93 E6        30.28S
NEW CASTLE     NOT AVBL
BEAVER COUNTY  SUNNY     52  48  87 E5        30.25S
BUTLER*        SUNNY     52  46  82 E8        30.27R
PITTSBURGH INT MOSUNNY   52  48  86 E6        30.23S
PITTSBURGH     SUNNY     53  47  79 VRB3      30.23R
INDIANA*       SUNNY     52  48  87 SE8       30.29S
LATROBE        MOSUNNY   50  50 100 N7        30.25R
WASHINGTON CO* SUNNY     52  50  93 NE5       30.24R
$$

PAZ004>006-010>012-017>019-024>028-033>037-041-042-045-046-049>053-191400-
CENTRAL PENNSYLVANIA

CITY           SKY/WX    TMP DP  RH WIND       PRES   REMARKS
BRADFORD       CLOUDY    43  41  93 SE10      30.29R FOG
DUBOIS         FOG       45  44  97 E9        30.27S VSB 1
CLEARFIELD     CLOUDY    46  45  96 NE6       30.30R FOG
JOHNSTOWN      SUNNY     50  47  89 E5        30.26R
ALTOONA        SUNNY     52  49  89 E6        30.29R
STATE COLLEGE  PTSUNNY   46  46 100 NE9       30.30R FOG
WILLIAMSPORT   SUNNY     52  44  74 CALM      30.31R
SELINSGROVE    SUNNY     54  46  74 VRB6      30.31R
FT INDIANTOWN  SUNNY     57  47  71 VRB5      30.30R
CAPITAL CITY   SUNNY     57  47  69 E8        30.29R
HARRISBURG     MOSUNNY   58  48  69 E6        30.29R
YORK           SUNNY     57  50  77 NE3       30.29R
$$

PAZ038>040-043-044-047-048-054-055-060>062-067>071-191400-
EASTERN PENNSYLVANIA

CITY           SKY/WX    TMP DP  RH WIND       PRES   REMARKS
SCRANTON       SUNNY     50  41  71 CALM      30.31R
MOUNT POCONO   CLOUDY    46  43  89 NE8       30.30R
ALLENTOWN      SUNNY     55  47  74 E9        30.31R
QUAKERTOWN*    SUNNY     55  45  67 NE8       30.31R
READING        SUNNY     57  47  69 NE9       30.29R
LANCASTER      SUNNY     56  48  74 NE10      30.29R
COATESVILLE    SUNNY     55  48  76 NE5       30.29R
POTTSTOWN      SUNNY     56  47  71 NE9       30.31R
BLUE BELL      SUNNY     59  50  72 NE3       30.28R
DOYLESTOWN     SUNNY     56  48  74 NE8       30.29R
WILLOW GROVE   NOT AVBL
NORTH PHILA    SUNNY     60  48  64 NE15      30.30R
PHILADELPHIA   MOSUNNY   61  50  67 NE13      30.28R
$$


USA.gov is the U.S. government's official web portal to all federal, state and local government web resources and services.